Location: Unspecified
(0.0000°N, 0.0000°E)
Time: 19:57:42
(UTC+00:00)

STARLINK-32704 - Visible Passes

Search period start: 10 November 2025 00:00
Search period end: 20 November 2025 00:00
Orbit: 474 x 476 km, 53.2° (Epoch: 07 November)

Date Brightness Start Highest point End Pass type
(mag) Time Alt. Az. Time Alt. Az. Time Alt. Az.
12 Nov ? 05:14:52 10° SSW 05:18:27 50° ESE 05:22:02 10° NE visible
13 Nov ? 04:44:58 10° SSW 04:48:25 38° ESE 04:51:52 10° NE visible
14 Nov ? 04:15:01 10° S 04:18:16 29° SE 04:21:29 10° ENE visible
15 Nov ? 03:46:04 16° SSE 03:47:59 23° SE 03:50:56 10° ENE visible
16 Nov ? 04:55:16 17° NW 04:55:16 17° NW 04:57:41 10° NNW visible
